Weather History for Mercury, NV

Change the Weather History Date:

Monday, January 21, 2013

  Actual Average Record
Temperature  
Mean Temperature 52 °F -  
Max Temperature 63 °F 55 °F 68 °F (2005)
Min Temperature 42 °F 33 °F 24 °F (2006)
Degree Days  
Heating Degree Days 12    
Growing Degree Days 2 (Base 50)    
Moisture  
Dew Point 3 °F    
Average Humidity 14    
Maximum Humidity 22    
Minimum Humidity 4    
Precipitation  
Precipitation 0.00 in - - ()
Sea Level Pressure  
Sea Level Pressure 30.18 in    
Wind  
Wind Speed 14 mph (ENE)    
Max Wind Speed 20 mph    
Max Gust Speed 25 mph    
Visibility 10 miles    
Events      
Averages and records for this station are not official NWS values.
T = Trace of Precipitation, MM = Missing Value Source: NWS Daily Summary

Daily Weather History Graph

Daily Weather History Graph

Search for Another Location

Airport:

Trip Planner

Search our weather history database for the weather conditions in past years. The results will help you decide how hot, cold, wet, or windy it might be!

Date:

Astronomy

Jan. 21, 2013 Rise Set
Actual Time 6:52 AM PST 4:58 PM PST
Civil Twilight 6:25 AM PST 5:26 PM PST
Nautical Twilight 5:53 AM PST 5:57 PM PST
Astronomical Twilight 5:22 AM PST 6:28 PM PST
Moon 12:42 PM PST (1/21) 2:24 AM PST (1/21)
Length of Visible Light 11h 01m
Length of Day
10h 05m
Waxing Gibbous, 76% of the Moon is Illuminated
Jan 21
Waxing Gibbous
Jan 26
Full
Feb 3
Last Quarter
Feb 9
New
Feb 17
First Quarter

Hourly Weather History & Observations

Time (PST) Temp. Windchill Dew Point Humidity Pressure Visibility Wind Dir Wind Speed Gust Speed Precip Events Conditions
12:52 AM 45.0 °F 38.5 °F 5.0 °F 19% 30.18 in 10.0 mi NE 13.8 mph - N/A   Clear
1:52 AM 45.0 °F 37.6 °F 5.0 °F 19% 30.18 in 10.0 mi NNE 17.3 mph - N/A   Clear
2:52 AM 45.0 °F 37.6 °F 5.0 °F 19% 30.18 in 10.0 mi NE 17.3 mph - N/A   Clear
3:52 AM 44.1 °F 36.8 °F 5.0 °F 20% 30.17 in 10.0 mi NE 16.1 mph - N/A   Clear
4:52 AM 45.0 °F 37.9 °F 5.0 °F 19% 30.19 in 10.0 mi NE 16.1 mph - N/A   Clear
5:52 AM 45.0 °F 37.9 °F 3.9 °F 18% 30.20 in 10.0 mi NE 16.1 mph - N/A   Clear
6:52 AM 44.1 °F 36.2 °F 3.9 °F 19% 30.22 in 10.0 mi NE 18.4 mph - N/A   Clear
7:52 AM 46.0 °F 39.0 °F 5.0 °F 19% 30.23 in 10.0 mi NNE 17.3 mph - N/A   Clear
8:52 AM 48.9 °F - 5.0 °F 17% 30.25 in 10.0 mi NE 19.6 mph 25.3 mph N/A   Clear
9:52 AM 55.9 °F - 3.0 °F 12% 30.24 in 10.0 mi NNE 13.8 mph - N/A   Clear
10:52 AM 59.0 °F - 3.9 °F 11% 30.23 in 10.0 mi East 12.7 mph - N/A   Clear
11:52 AM 61.0 °F - 1.0 °F 9% 30.20 in 10.0 mi ESE 10.4 mph - N/A   Clear
12:52 PM 62.1 °F - -0.0 °F 8% 30.17 in 10.0 mi ESE 10.4 mph - N/A   Clear
1:52 PM 63.0 °F - 1.0 °F 8% 30.14 in 10.0 mi ESE 15.0 mph - N/A   Clear
2:52 PM 63.0 °F - -0.0 °F 8% 30.13 in 10.0 mi ESE 16.1 mph - N/A   Clear
3:52 PM 62.1 °F - -0.0 °F 8% 30.12 in 10.0 mi ESE 16.1 mph - N/A   Clear
4:52 PM 57.9 °F - -2.0 °F 9% 30.13 in 10.0 mi ESE 10.4 mph - N/A   Clear
5:52 PM 52.0 °F - -0.0 °F 12% 30.15 in 10.0 mi Calm Calm - N/A   Clear
6:52 PM 46.9 °F - -0.0 °F 14% 30.16 in 10.0 mi Calm Calm - N/A   Clear
7:52 PM 48.9 °F - 3.0 °F 15% 30.16 in 10.0 mi NE 11.5 mph - N/A   Clear
8:52 PM 48.9 °F - 3.9 °F 16% 30.17 in 10.0 mi NE 12.7 mph - N/A   Clear
9:52 PM 46.9 °F - 7.0 °F 20% 30.17 in 10.0 mi NE 10.4 mph - N/A   Clear
10:52 PM 44.1 °F 42.5 °F 6.1 °F 21% 30.17 in 10.0 mi ENE 3.5 mph - N/A   Clear
11:52 PM 46.0 °F 41.0 °F 9.0 °F 22% 30.17 in 10.0 mi NE 10.4 mph - N/A   Clear